2018,12,17,00,00,00,17.9,,,,,,,,,,,,,,
2018,12,17,00,01,00,14.4,,,,,,,,,,,,,,
2018,12,17,00,02,00,11.6,,,,,,,,,,,,,,
2018,12,17,00,03,00,15.4,,,,,,,,,,,,,,
2018,12,17,00,04,00,14.4,,,,,,,,,,,,,,
2018,12,17,00,05,00,16.6,,,,,,,,,,,,,,
2018,12,17,00,06,00,17.7,,,,,,,,,,,,,,
2018,12,17,00,07,00,18.0,,,,,,,,,,,,,,
2018,12,17,00,08,00,26.6,,,,,,,,,,,,,,
2018,12,17,00,09,00,26.8,,,,,,,,,,,,,,
2018,12,17,00,10,00,21.9,,,,,,,,,,,,,,
2018,12,17,00,11,00,23.5,,,,,,,,,,,,,,
2018,12,17,00,12,00,33.6,,,,,,,,,,,,,,
2018,12,17,00,13,00,31.6,,,,,,,,,,,,,,
2018,12,17,00,14,00,34.7,,,,,,,,,,,,,,
2018,12,17,00,15,00,34.1,,,,,,,,,,,,,,
2018,12,17,00,16,00,36.0,,,,,,,,,,,,,,
2018,12,17,00,17,00,44.2,,,,,,,,,,,,,,
2018,12,17,00,18,00,43.2,,,,,,,,,,,,,,
2018,12,17,00,19,00,36.3,,,,,,,,,,,,,,
2018,12,17,00,20,00,29.3,,,,,,,,,,,,,,
2018,12,17,00,21,00,31.0,,,,,,,,,,,,,,
2018,12,17,00,22,00,32.6,,,,,,,,,,,,,,
2018,12,17,00,23,00,35.8,,,,,,,,,,,,,,
2018,12,17,00,24,00,36.2,,,,,,,,,,,,,,
2018,12,17,00,25,00,26.8,,,,,,,,,,,,,,
2018,12,17,00,26,00,22.4,,,,,,,,,,,,,,
2018,12,17,00,27,00,23.9,,,,,,,,,,,,,,
2018,12,17,00,28,00,24.0,,,,,,,,,,,,,,
2018,12,17,00,29,00,18.3,,,,,,,,,,,,,,
2018,12,17,00,30,00,21.4,,,,,,,,,,,,,,
2018,12,17,00,31,00,32.7,,,,,,,,,,,,,,
2018,12,17,00,32,00,33.7,,,,,,,,,,,,,,
2018,12,17,00,33,00,32.6,,,,,,,,,,,,,,
2018,12,17,00,34,00,30.6,,,,,,,,,,,,,,
2018,12,17,00,35,00,34.0,,,,,,,,,,,,,,
2018,12,17,00,36,00,34.3,,,,,,,,,,,,,,
2018,12,17,00,37,00,34.8,,,,,,,,,,,,,,
2018,12,17,00,38,00,34.7,,,,,,,,,,,,,,
2018,12,17,00,39,00,33.7,,,,,,,,,,,,,,
2018,12,17,00,40,00,33.6,,,,,,,,,,,,,,
2018,12,17,00,41,00,32.4,,,,,,,,,,,,,,
2018,12,17,00,42,00,33.3,,,,,,,,,,,,,,
2018,12,17,00,43,00,31.9,,,,,,,,,,,,,,
2018,12,17,00,44,00,31.7,,,,,,,,,,,,,,
2018,12,17,00,45,00,27.6,,,,,,,,,,,,,,
2018,12,17,00,46,00,21.0,,,,,,,,,,,,,,
2018,12,17,00,47,00,25.0,,,,,,,,,,,,,,
2018,12,17,00,48,00,29.7,,,,,,,,,,,,,,
2018,12,17,00,49,00,16.1,,,,,,,,,,,,,,
2018,12,17,00,50,00,15.3,,,,,,,,,,,,,,
2018,12,17,00,51,00,18.9,,,,,,,,,,,,,,
2018,12,17,00,52,00,24.0,,,,,,,,,,,,,,
2018,12,17,00,53,00,7.9,,,,,,,,,,,,,,
2018,12,17,00,54,00,10.5,,,,,,,,,,,,,,
2018,12,17,00,55,00,17.5,,,,,,,,,,,,,,
2018,12,17,00,56,00,29.0,,,,,,,,,,,,,,
2018,12,17,00,57,00,31.5,,,,,,,,,,,,,,
2018,12,17,00,58,00,35.1,,,,,,,,,,,,,,
2018,12,17,00,59,00,25.0,,,,,,,,,,,,,,
2018,12,17,01,00,00,25.4,,,,,,,,,,,,,,
2018,12,17,01,01,00,21.5,,,,,,,,,,,,,,
2018,12,17,01,02,00,30.7,,,,,,,,,,,,,,
2018,12,17,01,03,00,33.1,,,,,,,,,,,,,,
2018,12,17,01,04,00,27.4,,,,,,,,,,,,,,
2018,12,17,01,05,00,32.5,,,,,,,,,,,,,,
2018,12,17,01,06,00,33.1,,,,,,,,,,,,,,
2018,12,17,01,07,00,32.6,,,,,,,,,,,,,,
2018,12,17,01,08,00,31.3,,,,,,,,,,,,,,
2018,12,17,01,09,00,26.5,,,,,,,,,,,,,,
2018,12,17,01,10,00,26.6,,,,,,,,,,,,,,
2018,12,17,01,11,00,28.0,,,,,,,,,,,,,,
2018,12,17,01,12,00,30.9,,,,,,,,,,,,,,
2018,12,17,01,13,00,34.1,,,,,,,,,,,,,,
2018,12,17,01,14,00,32.9,,,,,,,,,,,,,,
2018,12,17,01,15,00,32.6,,,,,,,,,,,,,,
2018,12,17,01,16,00,31.5,,,,,,,,,,,,,,
2018,12,17,01,17,00,24.3,,,,,,,,,,,,,,
2018,12,17,01,18,00,13.3,,,,,,,,,,,,,,
2018,12,17,01,19,00,12.6,,,,,,,,,,,,,,
2018,12,17,01,20,00,16.0,,,,,,,,,,,,,,
2018,12,17,01,21,00,28.1,,,,,,,,,,,,,,
2018,12,17,01,22,00,34.7,,,,,,,,,,,,,,
2018,12,17,01,23,00,33.3,,,,,,,,,,,,,,
2018,12,17,01,24,00,22.8,,,,,,,,,,,,,,
2018,12,17,01,25,00,29.2,,,,,,,,,,,,,,
2018,12,17,01,26,00,30.7,,,,,,,,,,,,,,
2018,12,17,01,27,00,34.2,,,,,,,,,,,,,,
2018,12,17,01,28,00,30.5,,,,,,,,,,,,,,
2018,12,17,01,29,00,29.2,,,,,,,,,,,,,,
2018,12,17,01,30,00,31.6,,,,,,,,,,,,,,
2018,12,17,01,31,00,31.6,,,,,,,,,,,,,,
2018,12,17,01,32,00,33.4,,,,,,,,,,,,,,
2018,12,17,01,33,00,33.7,,,,,,,,,,,,,,
2018,12,17,01,34,00,35.1,,,,,,,,,,,,,,
2018,12,17,01,35,00,38.3,,,,,,,,,,,,,,
2018,12,17,01,36,00,36.2,,,,,,,,,,,,,,
2018,12,17,01,37,00,34.4,,,,,,,,,,,,,,
2018,12,17,01,38,00,31.0,,,,,,,,,,,,,,
2018,12,17,01,39,00,33.4,,,,,,,,,,,,,,
2018,12,17,01,40,00,35.1,,,,,,,,,,,,,,
2018,12,17,01,41,00,35.8,,,,,,,,,,,,,,
2018,12,17,01,42,00,34.9,,,,,,,,,,,,,,
2018,12,17,01,43,00,29.7,,,,,,,,,,,,,,
2018,12,17,01,44,00,28.8,,,,,,,,,,,,,,
2018,12,17,01,45,00,31.1,,,,,,,,,,,,,,
2018,12,17,01,46,00,30.8,,,,,,,,,,,,,,
2018,12,17,01,47,00,35.5,,,,,,,,,,,,,,
2018,12,17,01,48,00,34.7,,,,,,,,,,,,,,
2018,12,17,01,49,00,35.7,,,,,,,,,,,,,,
2018,12,17,01,50,00,34.9,,,,,,,,,,,,,,
2018,12,17,01,51,00,26.6,,,,,,,,,,,,,,
2018,12,17,01,52,00,25.4,,,,,,,,,,,,,,
2018,12,17,01,53,00,12.5,,,,,,,,,,,,,,
2018,12,17,01,54,00,10.6,,,,,,,,,,,,,,
2018,12,17,01,55,00,10.9,,,,,,,,,,,,,,
2018,12,17,01,56,00,10.8,,,,,,,,,,,,,,
2018,12,17,01,57,00,18.0,,,,,,,,,,,,,,
2018,12,17,01,58,00,29.5,,,,,,,,,,,,,,
2018,12,17,01,59,00,33.6,,,,,,,,,,,,,,
2018,12,17,02,00,00,19.3,,,,,,,,,,,,,,
2018,12,17,02,01,00,12.7,,,,,,,,,,,,,,
2018,12,17,02,02,00,19.6,,,,,,,,,,,,,,
2018,12,17,02,03,00,26.2,,,,,,,,,,,,,,
2018,12,17,02,04,00,29.2,,,,,,,,,,,,,,
2018,12,17,02,05,00,32.4,,,,,,,,,,,,,,
2018,12,17,02,06,00,33.7,,,,,,,,,,,,,,
2018,12,17,02,07,00,35.3,,,,,,,,,,,,,,
2018,12,17,02,08,00,36.6,,,,,,,,,,,,,,
2018,12,17,02,09,00,36.0,,,,,,,,,,,,,,
2018,12,17,02,10,00,38.9,,,,,,,,,,,,,,
2018,12,17,02,11,00,40.9,,,,,,,,,,,,,,
2018,12,17,02,12,00,38.4,,,,,,,,,,,,,,
2018,12,17,02,13,00,42.5,,,,,,,,,,,,,,
2018,12,17,02,14,00,43.2,,,,,,,,,,,,,,
2018,12,17,02,15,00,35.7,,,,,,,,,,,,,,
2018,12,17,02,16,00,41.1,,,,,,,,,,,,,,
2018,12,17,02,17,00,49.1,,,,,,,,,,,,,,
2018,12,17,02,18,00,47.3,,,,,,,,,,,,,,
2018,12,17,02,19,00,38.9,,,,,,,,,,,,,,
2018,12,17,02,20,00,35.8,,,,,,,,,,,,,,
2018,12,17,02,21,00,39.6,,,,,,,,,,,,,,
2018,12,17,02,22,00,38.1,,,,,,,,,,,,,,
2018,12,17,02,23,00,39.5,,,,,,,,,,,,,,
2018,12,17,02,24,00,41.5,,,,,,,,,,,,,,
2018,12,17,02,25,00,37.1,,,,,,,,,,,,,,
2018,12,17,02,26,00,36.4,,,,,,,,,,,,,,
2018,12,17,02,27,00,37.7,,,,,,,,,,,,,,
2018,12,17,02,28,00,36.1,,,,,,,,,,,,,,
2018,12,17,02,29,00,46.6,,,,,,,,,,,,,,
2018,12,17,02,30,00,48.4,,,,,,,,,,,,,,
2018,12,17,02,31,00,52.6,,,,,,,,,,,,,,
2018,12,17,02,32,00,58.5,,,,,,,,,,,,,,
2018,12,17,02,33,00,59.7,,,,,,,,,,,,,,
2018,12,17,02,34,00,53.4,,,,,,,,,,,,,,
2018,12,17,02,35,00,42.7,,,,,,,,,,,,,,
2018,12,17,02,36,00,38.3,,,,,,,,,,,,,,
2018,12,17,02,37,00,44.1,,,,,,,,,,,,,,
2018,12,17,02,38,00,58.9,,,,,,,,,,,,,,
2018,12,17,02,39,00,48.4,,,,,,,,,,,,,,
2018,12,17,02,40,00,33.5,,,,,,,,,,,,,,
2018,12,17,02,41,00,32.1,,,,,,,,,,,,,,
2018,12,17,02,42,00,28.8,,,,,,,,,,,,,,
2018,12,17,02,43,00,21.7,,,,,,,,,,,,,,
2018,12,17,02,44,00,25.3,,,,,,,,,,,,,,
2018,12,17,02,45,00,28.7,,,,,,,,,,,,,,
2018,12,17,02,46,00,31.5,,,,,,,,,,,,,,
2018,12,17,02,47,00,23.4,,,,,,,,,,,,,,
2018,12,17,02,48,00,14.2,,,,,,,,,,,,,,
2018,12,17,02,49,00,13.4,,,,,,,,,,,,,,
2018,12,17,02,50,00,12.3,,,,,,,,,,,,,,
2018,12,17,02,51,00,10.7,,,,,,,,,,,,,,
2018,12,17,02,52,00,10.2,,,,,,,,,,,,,,
2018,12,17,02,53,00,11.6,,,,,,,,,,,,,,
2018,12,17,02,54,00,21.3,,,,,,,,,,,,,,
2018,12,17,02,55,00,30.6,,,,,,,,,,,,,,
2018,12,17,02,56,00,40.8,,,,,,,,,,,,,,
2018,12,17,02,57,00,36.2,,,,,,,,,,,,,,
2018,12,17,02,58,00,32.6,,,,,,,,,,,,,,
2018,12,17,02,59,00,39.6,,,,,,,,,,,,,,
2018,12,17,03,00,00,41.8,,,,,,,,,,,,,,
2018,12,17,03,01,00,48.0,,,,,,,,,,,,,,
2018,12,17,03,02,00,49.7,,,,,,,,,,,,,,
2018,12,17,03,03,00,50.5,,,,,,,,,,,,,,
2018,12,17,03,04,00,44.6,,,,,,,,,,,,,,
2018,12,17,03,05,00,36.7,,,,,,,,,,,,,,
2018,12,17,03,06,00,31.5,,,,,,,,,,,,,,
2018,12,17,03,07,00,35.7,,,,,,,,,,,,,,
2018,12,17,03,08,00,27.6,,,,,,,,,,,,,,
2018,12,17,03,09,00,20.3,,,,,,,,,,,,,,
2018,12,17,03,10,00,26.7,,,,,,,,,,,,,,
2018,12,17,03,11,00,35.6,,,,,,,,,,,,,,
2018,12,17,03,12,00,31.5,,,,,,,,,,,,,,
2018,12,17,03,13,00,25.2,,,,,,,,,,,,,,
2018,12,17,03,14,00,14.2,,,,,,,,,,,,,,
2018,12,17,03,15,00,16.3,,,,,,,,,,,,,,
2018,12,17,03,16,00,27.1,,,,,,,,,,,,,,
2018,12,17,03,17,00,14.9,,,,,,,,,,,,,,
2018,12,17,03,18,00,19.3,,,,,,,,,,,,,,
2018,12,17,03,19,00,16.3,,,,,,,,,,,,,,
2018,12,17,03,20,00,9.4,,,,,,,,,,,,,,
2018,12,17,03,21,00,17.5,,,,,,,,,,,,,,
2018,12,17,03,22,00,17.3,,,,,,,,,,,,,,
2018,12,17,03,23,00,18.4,,,,,,,,,,,,,,
2018,12,17,03,24,00,15.9,,,,,,,,,,,,,,
2018,12,17,03,25,00,11.0,,,,,,,,,,,,,,
2018,12,17,03,26,00,19.5,,,,,,,,,,,,,,
2018,12,17,03,27,00,20.4,,,,,,,,,,,,,,
2018,12,17,03,28,00,26.7,,,,,,,,,,,,,,
2018,12,17,03,29,00,26.0,,,,,,,,,,,,,,
2018,12,17,03,30,00,17.9,,,,,,,,,,,,,,
2018,12,17,03,31,00,11.3,,,,,,,,,,,,,,
2018,12,17,03,32,00,13.6,,,,,,,,,,,,,,
2018,12,17,03,33,00,30.4,,,,,,,,,,,,,,
2018,12,17,03,34,00,7.3,,,,,,,,,,,,,,
2018,12,17,03,35,00,4.8,,,,,,,,,,,,,,
2018,12,17,03,36,00,9.1,,,,,,,,,,,,,,
2018,12,17,03,37,00,7.6,,,,,,,,,,,,,,
2018,12,17,03,38,00,20.4,,,,,,,,,,,,,,
2018,12,17,03,39,00,24.2,,,,,,,,,,,,,,
2018,12,17,03,40,00,15.2,,,,,,,,,,,,,,
2018,12,17,03,41,00,14.0,,,,,,,,,,,,,,
2018,12,17,03,42,00,11.7,,,,,,,,,,,,,,
2018,12,17,03,43,00,22.2,,,,,,,,,,,,,,
2018,12,17,03,44,00,24.4,,,,,,,,,,,,,,
2018,12,17,03,45,00,19.4,,,,,,,,,,,,,,
2018,12,17,03,46,00,24.4,,,,,,,,,,,,,,
2018,12,17,03,47,00,31.6,,,,,,,,,,,,,,
2018,12,17,03,48,00,37.1,,,,,,,,,,,,,,
2018,12,17,03,49,00,44.1,,,,,,,,,,,,,,
2018,12,17,03,50,00,40.8,,,,,,,,,,,,,,
2018,12,17,03,51,00,31.0,,,,,,,,,,,,,,
2018,12,17,03,52,00,38.2,,,,,,,,,,,,,,
2018,12,17,03,53,00,41.1,,,,,,,,,,,,,,
2018,12,17,03,54,00,44.7,,,,,,,,,,,,,,
2018,12,17,03,55,00,42.8,,,,,,,,,,,,,,
2018,12,17,03,56,00,34.1,,,,,,,,,,,,,,
2018,12,17,03,57,00,23.0,,,,,,,,,,,,,,
2018,12,17,03,58,00,20.5,,,,,,,,,,,,,,
2018,12,17,03,59,00,25.4,,,,,,,,,,,,,,
2018,12,17,04,00,00,18.7,,,,,,,,,,,,,,
2018,12,17,04,01,00,16.4,,,,,,,,,,,,,,
2018,12,17,04,02,00,17.9,,,,,,,,,,,,,,
2018,12,17,04,03,00,16.8,,,,,,,,,,,,,,
2018,12,17,04,04,00,16.4,,,,,,,,,,,,,,
2018,12,17,04,05,00,12.3,,,,,,,,,,,,,,
2018,12,17,04,06,00,14.7,,,,,,,,,,,,,,
2018,12,17,04,07,00,15.7,,,,,,,,,,,,,,
2018,12,17,04,08,00,26.0,,,,,,,,,,,,,,
2018,12,17,04,09,00,17.4,,,,,,,,,,,,,,
2018,12,17,04,10,00,20.3,,,,,,,,,,,,,,
2018,12,17,04,11,00,20.0,,,,,,,,,,,,,,
2018,12,17,04,12,00,20.7,,,,,,,,,,,,,,
2018,12,17,04,13,00,20.4,,,,,,,,,,,,,,
2018,12,17,04,14,00,12.0,,,,,,,,,,,,,,
2018,12,17,04,15,00,24.3,,,,,,,,,,,,,,
2018,12,17,04,16,00,35.3,,,,,,,,,,,,,,
2018,12,17,04,17,00,36.3,,,,,,,,,,,,,,
2018,12,17,04,18,00,49.5,,,,,,,,,,,,,,
2018,12,17,04,19,00,43.6,,,,,,,,,,,,,,
2018,12,17,04,20,00,43.8,,,,,,,,,,,,,,
2018,12,17,04,21,00,45.8,,,,,,,,,,,,,,
2018,12,17,04,22,00,45.7,,,,,,,,,,,,,,
2018,12,17,04,23,00,47.7,,,,,,,,,,,,,,
2018,12,17,04,24,00,43.3,,,,,,,,,,,,,,
2018,12,17,04,25,00,40.1,,,,,,,,,,,,,,
2018,12,17,04,26,00,37.6,,,,,,,,,,,,,,
2018,12,17,04,27,00,32.0,,,,,,,,,,,,,,
2018,12,17,04,28,00,30.3,,,,,,,,,,,,,,
2018,12,17,04,29,00,28.0,,,,,,,,,,,,,,
2018,12,17,04,30,00,27.2,,,,,,,,,,,,,,
2018,12,17,04,31,00,21.5,,,,,,,,,,,,,,
2018,12,17,04,32,00,20.0,,,,,,,,,,,,,,
2018,12,17,04,33,00,22.4,,,,,,,,,,,,,,
2018,12,17,04,34,00,16.2,,,,,,,,,,,,,,
2018,12,17,04,35,00,15.5,,,,,,,,,,,,,,
2018,12,17,04,36,00,15.6,,,,,,,,,,,,,,
2018,12,17,04,37,00,13.9,,,,,,,,,,,,,,
2018,12,17,04,38,00,18.2,,,,,,,,,,,,,,
2018,12,17,04,39,00,23.2,,,,,,,,,,,,,,
2018,12,17,04,40,00,30.7,,,,,,,,,,,,,,
2018,12,17,04,41,00,30.5,,,,,,,,,,,,,,
2018,12,17,04,42,00,33.2,,,,,,,,,,,,,,
2018,12,17,04,43,00,33.6,,,,,,,,,,,,,,
2018,12,17,04,44,00,33.8,,,,,,,,,,,,,,
2018,12,17,04,45,00,44.0,,,,,,,,,,,,,,
2018,12,17,04,46,00,29.1,,,,,,,,,,,,,,
2018,12,17,04,47,00,32.2,,,,,,,,,,,,,,
2018,12,17,04,48,00,32.3,,,,,,,,,,,,,,
2018,12,17,04,49,00,31.1,,,,,,,,,,,,,,
2018,12,17,04,50,00,32.7,,,,,,,,,,,,,,
2018,12,17,04,51,00,35.0,,,,,,,,,,,,,,
2018,12,17,04,52,00,38.6,,,,,,,,,,,,,,
2018,12,17,04,53,00,40.1,,,,,,,,,,,,,,
2018,12,17,04,54,00,40.6,,,,,,,,,,,,,,
2018,12,17,04,55,00,35.4,,,,,,,,,,,,,,
2018,12,17,04,56,00,28.1,,,,,,,,,,,,,,
2018,12,17,04,57,00,24.9,,,,,,,,,,,,,,
2018,12,17,04,58,00,28.2,,,,,,,,,,,,,,
2018,12,17,04,59,00,31.4,,,,,,,,,,,,,,
2018,12,17,05,00,00,40.6,,,,,,,,,,,,,,
2018,12,17,05,01,00,46.0,,,,,,,,,,,,,,
2018,12,17,05,02,00,40.0,,,,,,,,,,,,,,
2018,12,17,05,03,00,37.0,,,,,,,,,,,,,,
2018,12,17,05,04,00,38.0,,,,,,,,,,,,,,
2018,12,17,05,05,00,45.7,,,,,,,,,,,,,,
2018,12,17,05,06,00,50.7,,,,,,,,,,,,,,
2018,12,17,05,07,00,46.8,,,,,,,,,,,,,,
2018,12,17,05,08,00,58.8,,,,,,,,,,,,,,
2018,12,17,05,09,00,55.6,,,,,,,,,,,,,,
2018,12,17,05,10,00,47.3,,,,,,,,,,,,,,
2018,12,17,05,11,00,52.8,,,,,,,,,,,,,,
2018,12,17,05,12,00,48.7,,,,,,,,,,,,,,
2018,12,17,05,13,00,43.2,,,,,,,,,,,,,,
2018,12,17,05,14,00,44.6,,,,,,,,,,,,,,
2018,12,17,05,15,00,42.2,,,,,,,,,,,,,,
2018,12,17,05,16,00,43.7,,,,,,,,,,,,,,
2018,12,17,05,17,00,43.0,,,,,,,,,,,,,,
2018,12,17,05,18,00,36.7,,,,,,,,,,,,,,
2018,12,17,05,19,00,37.0,,,,,,,,,,,,,,
2018,12,17,05,20,00,46.4,,,,,,,,,,,,,,
2018,12,17,05,21,00,54.3,,,,,,,,,,,,,,
2018,12,17,05,22,00,67.1,,,,,,,,,,,,,,
2018,12,17,05,23,00,66.9,,,,,,,,,,,,,,
2018,12,17,05,24,00,52.6,,,,,,,,,,,,,,
2018,12,17,05,25,00,46.9,,,,,,,,,,,,,,
2018,12,17,05,26,00,49.7,,,,,,,,,,,,,,
2018,12,17,05,27,00,49.2,,,,,,,,,,,,,,
2018,12,17,05,28,00,47.0,,,,,,,,,,,,,,
2018,12,17,05,29,00,48.8,,,,,,,,,,,,,,
2018,12,17,05,30,00,50.5,,,,,,,,,,,,,,
2018,12,17,05,31,00,52.3,,,,,,,,,,,,,,
2018,12,17,05,32,00,46.9,,,,,,,,,,,,,,
2018,12,17,05,33,00,48.7,,,,,,,,,,,,,,
2018,12,17,05,34,00,51.1,,,,,,,,,,,,,,
2018,12,17,05,35,00,50.5,,,,,,,,,,,,,,
2018,12,17,05,36,00,52.2,,,,,,,,,,,,,,
2018,12,17,05,37,00,51.3,,,,,,,,,,,,,,
2018,12,17,05,38,00,48.8,,,,,,,,,,,,,,
2018,12,17,05,39,00,46.9,,,,,,,,,,,,,,
2018,12,17,05,40,00,45.9,,,,,,,,,,,,,,
2018,12,17,05,41,00,39.3,,,,,,,,,,,,,,
2018,12,17,05,42,00,41.7,,,,,,,,,,,,,,
2018,12,17,05,43,00,46.7,,,,,,,,,,,,,,
2018,12,17,05,44,00,45.1,,,,,,,,,,,,,,
2018,12,17,05,45,00,49.8,,,,,,,,,,,,,,
2018,12,17,05,46,00,52.5,,,,,,,,,,,,,,
2018,12,17,05,47,00,48.7,,,,,,,,,,,,,,
2018,12,17,05,48,00,47.3,,,,,,,,,,,,,,
2018,12,17,05,49,00,44.6,,,,,,,,,,,,,,
2018,12,17,05,50,00,51.2,,,,,,,,,,,,,,
2018,12,17,05,51,00,48.5,,,,,,,,,,,,,,
2018,12,17,05,52,00,47.3,,,,,,,,,,,,,,
2018,12,17,05,53,00,49.2,,,,,,,,,,,,,,
2018,12,17,05,54,00,52.4,,,,,,,,,,,,,,
2018,12,17,05,55,00,57.1,,,,,,,,,,,,,,
2018,12,17,05,56,00,60.4,,,,,,,,,,,,,,
2018,12,17,05,57,00,56.8,,,,,,,,,,,,,,
2018,12,17,05,58,00,58.3,,,,,,,,,,,,,,
2018,12,17,05,59,00,51.6,,,,,,,,,,,,,,
2018,12,17,06,00,00,47.6,,,,,,,,,,,,,,
2018,12,17,06,01,00,53.3,,,,,,,,,,,,,,
2018,12,17,06,02,00,51.0,,,,,,,,,,,,,,
2018,12,17,06,03,00,42.5,,,,,,,,,,,,,,
2018,12,17,06,04,00,44.8,,,,,,,,,,,,,,
2018,12,17,06,05,00,44.3,,,,,,,,,,,,,,
2018,12,17,06,06,00,45.2,,,,,,,,,,,,,,
2018,12,17,06,07,00,45.0,,,,,,,,,,,,,,
2018,12,17,06,08,00,41.9,,,,,,,,,,,,,,
2018,12,17,06,09,00,39.3,,,,,,,,,,,,,,
2018,12,17,06,10,00,53.6,,,,,,,,,,,,,,
2018,12,17,06,11,00,47.5,,,,,,,,,,,,,,
2018,12,17,06,12,00,62.1,,,,,,,,,,,,,,
2018,12,17,06,13,00,54.1,,,,,,,,,,,,,,
2018,12,17,06,14,00,53.9,,,,,,,,,,,,,,
2018,12,17,06,15,00,55.6,,,,,,,,,,,,,,
2018,12,17,06,16,00,67.9,,,,,,,,,,,,,,
2018,12,17,06,17,00,49.7,,,,,,,,,,,,,,
2018,12,17,06,18,00,44.5,,,,,,,,,,,,,,
2018,12,17,06,19,00,50.9,,,,,,,,,,,,,,
2018,12,17,06,20,00,48.6,,,,,,,,,,,,,,
2018,12,17,06,21,00,52.0,,,,,,,,,,,,,,
2018,12,17,06,22,00,47.2,,,,,,,,,,,,,,
2018,12,17,06,23,00,53.9,,,,,,,,,,,,,,
2018,12,17,06,24,00,49.0,,,,,,,,,,,,,,
2018,12,17,06,25,00,41.5,,,,,,,,,,,,,,
2018,12,17,06,26,00,51.1,,,,,,,,,,,,,,
2018,12,17,06,27,00,63.5,,,,,,,,,,,,,,
2018,12,17,06,28,00,57.1,,,,,,,,,,,,,,
2018,12,17,06,29,00,69.8,,,,,,,,,,,,,,
2018,12,17,06,30,00,71.7,,,,,,,,,,,,,,
2018,12,17,06,31,00,71.1,,,,,,,,,,,,,,
2018,12,17,06,32,00,59.1,,,,,,,,,,,,,,
2018,12,17,06,33,00,54.4,,,,,,,,,,,,,,
2018,12,17,06,34,00,58.7,,,,,,,,,,,,,,
2018,12,17,06,35,00,61.3,,,,,,,,,,,,,,
2018,12,17,06,36,00,65.4,,,,,,,,,,,,,,
2018,12,17,06,37,00,65.5,,,,,,,,,,,,,,
2018,12,17,06,38,00,59.7,,,,,,,,,,,,,,
2018,12,17,06,39,00,59.0,,,,,,,,,,,,,,
2018,12,17,06,40,00,59.1,,,,,,,,,,,,,,
2018,12,17,06,41,00,63.1,,,,,,,,,,,,,,
2018,12,17,06,42,00,58.2,,,,,,,,,,,,,,
2018,12,17,06,43,00,59.2,,,,,,,,,,,,,,
2018,12,17,06,44,00,63.8,,,,,,,,,,,,,,
2018,12,17,06,45,00,50.6,,,,,,,,,,,,,,
2018,12,17,06,46,00,52.5,,,,,,,,,,,,,,
2018,12,17,06,47,00,39.9,,,,,,,,,,,,,,
2018,12,17,06,48,00,35.5,,,,,,,,,,,,,,
2018,12,17,06,49,00,34.3,,,,,,,,,,,,,,
2018,12,17,06,50,00,30.5,,,,,,,,,,,,,,
2018,12,17,06,51,00,31.3,,,,,,,,,,,,,,
2018,12,17,06,52,00,30.2,,,,,,,,,,,,,,
2018,12,17,06,53,00,33.2,,,,,,,,,,,,,,
2018,12,17,06,54,00,31.6,,,,,,,,,,,,,,
2018,12,17,06,55,00,38.0,,,,,,,,,,,,,,
2018,12,17,06,56,00,47.6,,,,,,,,,,,,,,
2018,12,17,06,57,00,49.0,,,,,,,,,,,,,,
2018,12,17,06,58,00,47.0,,,,,,,,,,,,,,
2018,12,17,06,59,00,45.6,,,,,,,,,,,,,,
2018,12,17,07,00,00,54.5,,,,,,,,,,,,,,
2018,12,17,07,01,00,61.2,,,,,,,,,,,,,,
2018,12,17,07,02,00,47.6,,,,,,,,,,,,,,
2018,12,17,07,03,00,52.9,,,,,,,,,,,,,,
2018,12,17,07,04,00,45.2,,,,,,,,,,,,,,
2018,12,17,07,05,00,43.3,,,,,,,,,,,,,,
2018,12,17,07,06,00,37.4,,,,,,,,,,,,,,
2018,12,17,07,07,00,35.6,,,,,,,,,,,,,,
2018,12,17,07,08,00,35.2,,,,,,,,,,,,,,
2018,12,17,07,09,00,35.4,,,,,,,,,,,,,,
2018,12,17,07,10,00,30.3,,,,,,,,,,,,,,
2018,12,17,07,11,00,37.9,,,,,,,,,,,,,,
2018,12,17,07,12,00,33.6,,,,,,,,,,,,,,
2018,12,17,07,13,00,36.5,,,,,,,,,,,,,,
2018,12,17,07,14,00,37.0,,,,,,,,,,,,,,
2018,12,17,07,15,00,43.6,,,,,,,,,,,,,,
2018,12,17,07,16,00,43.7,,,,,,,,,,,,,,
2018,12,17,07,17,00,51.5,,,,,,,,,,,,,,
2018,12,17,07,18,00,66.1,,,,,,,,,,,,,,
2018,12,17,07,19,00,61.6,,,,,,,,,,,,,,
2018,12,17,07,20,00,52.2,,,,,,,,,,,,,,
2018,12,17,07,21,00,43.7,,,,,,,,,,,,,,
2018,12,17,07,22,00,42.8,,,,,,,,,,,,,,
2018,12,17,07,23,00,39.6,,,,,,,,,,,,,,
2018,12,17,07,24,00,42.0,,,,,,,,,,,,,,
2018,12,17,07,25,00,41.7,,,,,,,,,,,,,,
2018,12,17,07,26,00,28.5,,,,,,,,,,,,,,
2018,12,17,07,27,00,25.2,,,,,,,,,,,,,,
2018,12,17,07,28,00,23.8,,,,,,,,,,,,,,
2018,12,17,07,29,00,22.0,,,,,,,,,,,,,,
2018,12,17,07,30,00,26.1,,,,,,,,,,,,,,
2018,12,17,07,31,00,24.4,,,,,,,,,,,,,,
2018,12,17,07,32,00,24.6,,,,,,,,,,,,,,
2018,12,17,07,33,00,27.5,,,,,,,,,,,,,,
2018,12,17,07,34,00,31.3,,,,,,,,,,,,,,
2018,12,17,07,35,00,33.0,,,,,,,,,,,,,,
2018,12,17,07,36,00,33.1,,,,,,,,,,,,,,
2018,12,17,07,37,00,32.8,,,,,,,,,,,,,,
2018,12,17,07,38,00,32.8,,,,,,,,,,,,,,
2018,12,17,07,39,00,31.9,,,,,,,,,,,,,,
2018,12,17,07,40,00,30.7,,,,,,,,,,,,,,
2018,12,17,07,41,00,35.5,,,,,,,,,,,,,,
2018,12,17,07,42,00,43.1,,,,,,,,,,,,,,
2018,12,17,07,43,00,38.7,,,,,,,,,,,,,,
2018,12,17,07,44,00,41.4,,,,,,,,,,,,,,
2018,12,17,07,45,00,41.6,,,,,,,,,,,,,,
2018,12,17,07,46,00,58.1,,,,,,,,,,,,,,
2018,12,17,07,47,00,37.4,,,,,,,,,,,,,,
2018,12,17,07,48,00,31.5,,,,,,,,,,,,,,
2018,12,17,07,49,00,36.0,,,,,,,,,,,,,,
2018,12,17,07,50,00,36.3,,,,,,,,,,,,,,
2018,12,17,07,51,00,35.7,,,,,,,,,,,,,,
2018,12,17,07,52,00,35.8,,,,,,,,,,,,,,
2018,12,17,07,53,00,35.3,,,,,,,,,,,,,,
2018,12,17,07,54,00,36.7,,,,,,,,,,,,,,
2018,12,17,07,55,00,34.3,,,,,,,,,,,,,,
2018,12,17,07,56,00,33.3,,,,,,,,,,,,,,
2018,12,17,07,57,00,33.6,,,,,,,,,,,,,,
2018,12,17,07,58,00,32.9,,,,,,,,,,,,,,
2018,12,17,07,59,00,33.0,,,,,,,,,,,,,,
2018,12,17,08,00,00,28.7,,,,,,,,,,,,,,
2018,12,17,08,01,00,28.4,,,,,,,,,,,,,,
2018,12,17,08,02,00,26.3,,,,,,,,,,,,,,
2018,12,17,08,03,00,25.7,,,,,,,,,,,,,,
2018,12,17,08,04,00,28.4,,,,,,,,,,,,,,
2018,12,17,08,05,00,31.4,,,,,,,,,,,,,,
2018,12,17,08,06,00,32.6,,,,,,,,,,,,,,
2018,12,17,08,07,00,33.6,,,,,,,,,,,,,,
2018,12,17,08,08,00,35.1,,,,,,,,,,,,,,
2018,12,17,08,09,00,32.2,,,,,,,,,,,,,,
2018,12,17,08,10,00,33.3,,,,,,,,,,,,,,
2018,12,17,08,11,00,32.8,,,,,,,,,,,,,,
2018,12,17,08,12,00,31.9,,,,,,,,,,,,,,
2018,12,17,08,13,00,28.4,,,,,,,,,,,,,,
2018,12,17,08,14,00,29.9,,,,,,,,,,,,,,
2018,12,17,08,15,00,30.9,,,,,,,,,,,,,,
2018,12,17,08,16,00,29.8,,,,,,,,,,,,,,
2018,12,17,08,17,00,28.9,,,,,,,,,,,,,,
2018,12,17,08,18,00,29.1,,,,,,,,,,,,,,
2018,12,17,08,19,00,32.3,,,,,,,,,,,,,,
2018,12,17,08,20,00,33.3,,,,,,,,,,,,,,
2018,12,17,08,21,00,34.6,,,,,,,,,,,,,,
2018,12,17,08,22,00,29.0,,,,,,,,,,,,,,
2018,12,17,08,23,00,23.4,,,,,,,,,,,,,,
2018,12,17,08,24,00,26.0,,,,,,,,,,,,,,
2018,12,17,08,25,00,29.1,,,,,,,,,,,,,,
2018,12,17,08,26,00,32.1,,,,,,,,,,,,,,
2018,12,17,08,27,00,32.3,,,,,,,,,,,,,,
2018,12,17,08,28,00,33.1,,,,,,,,,,,,,,
2018,12,17,08,29,00,32.0,,,,,,,,,,,,,,
2018,12,17,08,30,00,30.6,,,,,,,,,,,,,,
2018,12,17,08,31,00,36.0,,,,,,,,,,,,,,
2018,12,17,08,32,00,33.8,,,,,,,,,,,,,,
2018,12,17,08,33,00,32.6,,,,,,,,,,,,,,
2018,12,17,08,34,00,33.8,,,,,,,,,,,,,,
2018,12,17,08,35,00,33.3,,,,,,,,,,,,,,
2018,12,17,08,36,00,33.5,,,,,,,,,,,,,,
2018,12,17,08,37,00,31.3,,,,,,,,,,,,,,
2018,12,17,08,38,00,31.1,,,,,,,,,,,,,,
2018,12,17,08,39,00,34.2,,,,,,,,,,,,,,
2018,12,17,08,40,00,33.9,,,,,,,,,,,,,,
2018,12,17,08,41,00,32.9,,,,,,,,,,,,,,
2018,12,17,08,42,00,32.2,,,,,,,,,,,,,,
2018,12,17,08,43,00,29.5,,,,,,,,,,,,,,
2018,12,17,08,44,00,30.7,,,,,,,,,,,,,,
2018,12,17,08,45,00,28.4,,,,,,,,,,,,,,
2018,12,17,08,46,00,31.2,,,,,,,,,,,,,,
2018,12,17,08,47,00,33.4,,,,,,,,,,,,,,
2018,12,17,08,48,00,31.2,,,,,,,,,,,,,,
2018,12,17,08,49,00,29.2,,,,,,,,,,,,,,
2018,12,17,08,50,00,34.1,,,,,,,,,,,,,,
2018,12,17,08,51,00,31.7,,,,,,,,,,,,,,
2018,12,17,08,52,00,29.9,,,,,,,,,,,,,,
2018,12,17,08,53,00,29.4,,,,,,,,,,,,,,
2018,12,17,08,54,00,30.2,,,,,,,,,,,,,,
2018,12,17,08,55,00,29.5,,,,,,,,,,,,,,
2018,12,17,08,56,00,32.7,,,,,,,,,,,,,,
2018,12,17,08,57,00,30.7,,,,,,,,,,,,,,
2018,12,17,08,58,00,29.8,,,,,,,,,,,,,,
2018,12,17,08,59,00,29.6,,,,,,,,,,,,,,
2018,12,17,09,00,00,32.8,,,,,,,,,,,,,,
2018,12,17,09,01,00,34.4,,,,,,,,,,,,,,
2018,12,17,09,02,00,35.9,,,,,,,,,,,,,,
2018,12,17,09,03,00,42.3,,,,,,,,,,,,,,
2018,12,17,09,04,00,54.1,,,,,,,,,,,,,,
2018,12,17,09,05,00,66.4,,,,,,,,,,,,,,
2018,12,17,09,06,00,73.2,,,,,,,,,,,,,,
2018,12,17,09,07,00,72.7,,,,,,,,,,,,,,
2018,12,17,09,08,00,67.3,,,,,,,,,,,,,,
2018,12,17,09,09,00,59.5,,,,,,,,,,,,,,
2018,12,17,09,10,00,43.3,,,,,,,,,,,,,,
2018,12,17,09,11,00,38.1,,,,,,,,,,,,,,
2018,12,17,09,12,00,37.6,,,,,,,,,,,,,,
2018,12,17,09,13,00,34.6,,,,,,,,,,,,,,
2018,12,17,09,14,00,35.4,,,,,,,,,,,,,,
2018,12,17,09,15,00,35.3,,,,,,,,,,,,,,
2018,12,17,09,16,00,35.9,,,,,,,,,,,,,,
2018,12,17,09,17,00,38.8,,,,,,,,,,,,,,
2018,12,17,09,18,00,44.0,,,,,,,,,,,,,,
2018,12,17,09,19,00,52.5,,,,,,,,,,,,,,
2018,12,17,09,20,00,56.9,,,,,,,,,,,,,,
2018,12,17,09,21,00,57.9,,,,,,,,,,,,,,
2018,12,17,09,22,00,53.3,,,,,,,,,,,,,,
2018,12,17,09,23,00,58.1,,,,,,,,,,,,,,
2018,12,17,09,24,00,68.9,,,,,,,,,,,,,,
2018,12,17,09,25,00,71.5,,,,,,,,,,,,,,
2018,12,17,09,26,00,55.8,,,,,,,,,,,,,,
2018,12,17,09,27,00,37.7,,,,,,,,,,,,,,
2018,12,17,09,28,00,36.7,,,,,,,,,,,,,,
2018,12,17,09,29,00,36.6,,,,,,,,,,,,,,
2018,12,17,09,30,00,34.7,,,,,,,,,,,,,,
2018,12,17,09,31,00,35.2,,,,,,,,,,,,,,
2018,12,17,09,32,00,36.6,,,,,,,,,,,,,,
2018,12,17,09,33,00,38.6,,,,,,,,,,,,,,
2018,12,17,09,34,00,34.9,,,,,,,,,,,,,,
2018,12,17,09,35,00,34.0,,,,,,,,,,,,,,
2018,12,17,09,36,00,29.5,,,,,,,,,,,,,,
2018,12,17,09,37,00,31.9,,,,,,,,,,,,,,
2018,12,17,09,38,00,33.0,,,,,,,,,,,,,,
2018,12,17,09,39,00,35.1,,,,,,,,,,,,,,
2018,12,17,09,40,00,32.8,,,,,,,,,,,,,,
2018,12,17,09,41,00,33.2,,,,,,,,,,,,,,
2018,12,17,09,42,00,29.6,,,,,,,,,,,,,,
2018,12,17,09,43,00,22.3,,,,,,,,,,,,,,
2018,12,17,09,44,00,20.3,,,,,,,,,,,,,,
2018,12,17,09,45,00,24.6,,,,,,,,,,,,,,
2018,12,17,09,46,00,28.7,,,,,,,,,,,,,,
2018,12,17,09,47,00,26.9,,,,,,,,,,,,,,
2018,12,17,09,48,00,30.4,,,,,,,,,,,,,,
2018,12,17,09,49,00,28.4,,,,,,,,,,,,,,
2018,12,17,09,50,00,21.1,,,,,,,,,,,,,,
2018,12,17,09,51,00,24.1,,,,,,,,,,,,,,
2018,12,17,09,52,00,29.0,,,,,,,,,,,,,,
2018,12,17,09,53,00,29.6,,,,,,,,,,,,,,
2018,12,17,09,54,00,30.3,,,,,,,,,,,,,,
2018,12,17,09,55,00,30.3,,,,,,,,,,,,,,
2018,12,17,09,56,00,27.9,,,,,,,,,,,,,,
2018,12,17,09,57,00,28.8,,,,,,,,,,,,,,
2018,12,17,09,58,00,27.4,,,,,,,,,,,,,,
2018,12,17,09,59,00,25.9,,,,,,,,,,,,,,